Imperial, CA

6:32 AM PST on December 11, 2016 (GMT -0800)
Imperial County

Weather History for KIPL - August, 2014

Change the Weather History Date:

Sunday, August 17, 2014

  Actual Average Record
Temperature  
Mean Temperature 96 °F -  
Max Temperature 111 °F 102 °F 115 °F (2015)
Min Temperature 82 °F 76 °F 64 °F (1949)
Cooling Degree Days 32    
Growing Degree Days 46 (Base 50)    
Moisture  
Dew Point 56 °F    
Average Humidity 26    
Maximum Humidity 49    
Minimum Humidity 15    
Precipitation  
Precipitation 0.00 in - - ()
Sea Level Pressure  
Sea Level Pressure 29.76 in    
Wind  
Wind Speed 6 mph (SW)    
Max Wind Speed 12 mph    
Max Gust Speed -    
Visibility 10 miles    
Events      
Averages and records for this station are not official NWS values.
T = Trace of Precipitation, MM = Missing Value Source: NWS Daily Summary

Daily Weather History Graph

Daily Weather History Graph

Search for Another Location

Airport or City:

Trip Planner

Search our weather history database for the weather conditions in past years. The results will help you decide how hot, cold, wet, or windy it might be!

Date:

Astronomy

Aug. 17, 2014 Rise Set
Actual Time 6:07 AM PDT 7:25 PM PDT
Civil Twilight 5:41 AM PDT 7:50 PM PDT
Nautical Twilight 5:10 AM PDT 8:21 PM PDT
Astronomical Twilight 4:38 AM PDT 8:53 PM PDT
Moon No Moon Rise 1:31 PM PDT (8/17)
Length of Visible Light 14h 09m
Length of Day
13h 18m
Waning Gibbous, 47% of the Moon is Illuminated
Aug 17
Waning Gibbous
Aug 25
New
Sep 2
First Quarter
Sep 8
Full
Sep 15
Last Quarter

Hourly Weather History & Observations

Time (PDT) Temp. Heat Index Dew Point Humidity Pressure Visibility Wind Dir Wind Speed Gust Speed Precip Events Conditions
12:53 AM 89.1 °F 89.3 °F 62.1 °F 40% 29.79 in 10.0 mi WSW 6.9 mph - N/A   Clear
1:53 AM 89.1 °F 87.7 °F 57.0 °F 34% 29.79 in 10.0 mi WSW 9.2 mph - N/A   Clear
2:53 AM 88.0 °F 86.7 °F 57.0 °F 35% 29.80 in 10.0 mi West 8.1 mph - N/A   Clear
3:53 AM 86.0 °F 84.9 °F 57.0 °F 37% 29.79 in 10.0 mi WSW 5.8 mph - N/A   Clear
4:53 AM 86.0 °F 84.5 °F 55.0 °F 35% 29.80 in 10.0 mi Calm Calm - N/A   Clear
5:53 AM 82.9 °F 83.7 °F 62.1 °F 49% 29.81 in 10.0 mi SSW 3.5 mph - N/A   Clear
6:53 AM 84.9 °F 84.4 °F 59.0 °F 41% 29.82 in 10.0 mi Calm Calm - N/A   Clear
7:53 AM 91.0 °F 90.2 °F 59.0 °F 34% 29.83 in 10.0 mi Calm Calm - N/A   Clear
8:53 AM 93.9 °F 96.1 °F 64.9 °F 38% 29.83 in 10.0 mi WNW 6.9 mph - N/A   Clear
9:53 AM 99.0 °F 98.6 °F 59.0 °F 26% 29.84 in 10.0 mi NW 6.9 mph - N/A   Clear
10:53 AM 102.0 °F 101.1 °F 57.0 °F 22% 29.83 in 10.0 mi West 6.9 mph - N/A   Clear
11:53 AM 104.0 °F 102.9 °F 55.9 °F 20% 29.82 in 10.0 mi Calm Calm - N/A   Clear
12:53 PM 106.0 °F - 52.0 °F 17% 29.79 in 10.0 mi Variable 3.5 mph - N/A   Clear
1:53 PM 109.0 °F - 52.0 °F 15% 29.77 in 10.0 mi ESE 8.1 mph - N/A   Clear
2:00 PM 109.0 °F 107.4 °F 53.1 °F 16% 29.76 in 10.0 mi Variable 5.8 mph - N/A   Partly Cloudy
2:53 PM 109.9 °F 108.6 °F 54.0 °F 16% 29.74 in 10.0 mi ESE 8.1 mph - N/A   Clear
3:53 PM 111.0 °F 109.3 °F 54.0 °F 15% 29.70 in 10.0 mi ESE 11.5 mph - N/A   Clear
4:53 PM 109.9 °F 107.9 °F 53.1 °F 15% 29.68 in 10.0 mi Calm Calm - N/A   Clear
5:53 PM 109.9 °F 107.9 °F 53.1 °F 15% 29.67 in 10.0 mi Calm Calm - N/A   Clear
6:53 PM 109.0 °F 107.4 °F 53.1 °F 16% 29.66 in 10.0 mi SE 5.8 mph - N/A   Clear
7:53 PM 105.1 °F 108.5 °F 64.0 °F 26% 29.67 in 10.0 mi SSE 11.5 mph - N/A   Clear
8:53 PM 102.0 °F - 50.0 °F 17% 29.70 in 10.0 mi SW 11.5 mph - N/A   Clear
9:53 PM 95.0 °F 92.5 °F 53.1 °F 24% 29.71 in 10.0 mi West 9.2 mph - N/A   Clear
10:53 PM 93.2 °F - 51.8 °F 24% 29.71 in 10.0 mi WSW 9.2 mph - N/A   Clear
11:53 PM 91.4 °F 89.1 °F 53.6 °F 28% 29.71 in 10.0 mi West 6.9 mph - N/A   Clear